カタログに戻る

STARLINK-35093

運用中通信VLEO
NORAD 65478·PAYLOAD·🇺🇸 United States

打ち上げ Sep 3, 2025 から Cape Canaveral Space Force Station

Loading…

次のパス (今後24時間)

TLE

最新Source: CelesTrak SupGP

元期: Sep 15, 2026, 03:45 UTC

1 65478C 25195W   26258.15673611 -.00019473  00000+0 -62621-3 0  2588
2 65478  53.1579  96.5734 0001242  86.8878 278.3895 15.31710818    18

AllMySatでSTARLINK-35093をリアルタイム追跡

Download on the App Store